| time (UTC) | temp F | wind direction | speed MPH | gust MPH | rain 1hr in | rain 24hr in | rain mn in | humidity % | barometer mb |
| 20260903165425 | 65 | 102 | 2.0 | 7.0 | 0.00 | 0.03 | 0.03 | 84 | 1005.3 |
| 20260903163419 | 65 | 96 | 3.0 | 9.0 | 0.00 | 0.03 | 0.03 | 85 | 1005.0 |
| 20260903161913 | 65 | 138 | 1.0 | 6.0 | 0.00 | 0.03 | 0.03 | 87 | 1004.9 |
| 20260903155926 | 64 | 126 | 3.0 | 7.0 | 0.00 | 0.03 | 0.03 | 89 | 1004.9 |
| 20260903153930 | 63 | 182 | 1.0 | 9.0 | 0.00 | 0.03 | 0.03 | 91 | 1004.8 |
| 20260903152419 | 62 | 188 | 2.0 | 6.0 | 0.00 | 0.03 | 0.03 | 93 | 1004.4 |
| 20260903150913 | 61 | 163 | 0.0 | 0.0 | 0.00 | 0.03 | 0.03 | 93 | 1003.8 |
| 20260903144934 | 60 | 164 | 0.0 | 0.0 | 0.00 | 0.04 | 0.03 | 93 | 1003.2 |
| 20260903143411 | 59 | 337 | 0.0 | 5.0 | 0.00 | 0.04 | 0.03 | 94 | 1003.1 |
| 20260903141909 | 59 | 73 | 7.0 | 11.0 | 0.00 | 0.04 | 0.03 | 94 | 1002.4 |
| 20260903135934 | 59 | 77 | 9.0 | 15.0 | 0.00 | 0.04 | 0.03 | 94 | 1002.4 |
| 20260903134430 | 59 | 72 | 11.0 | 15.0 | 0.00 | 0.04 | 0.03 | 94 | 1002.4 |
| 20260903131930 | 59 | 221 | 0.0 | 4.0 | 0.03 | 0.04 | 0.03 | 93 | 1004.0 |
| 20260903130426 | 59 | 214 | 5.0 | 10.0 | 0.03 | 0.04 | 0.03 | 93 | 1004.9 |
| 20260903124436 | 59 | 42 | 11.0 | 25.0 | 0.02 | 0.03 | 0.02 | 91 | 1002.3 |
| 20260903122433 | 59 | 90 | 10.0 | 16.0 | 0.00 | 0.01 | 0.00 | 90 | 1005.6 |
| 20260903120414 | 59 | 71 | 8.0 | 14.0 | 0.00 | 0.01 | 0.00 | 90 | 1006.2 |
| 20260903114424 | 60 | 84 | 7.0 | 11.0 | 0.00 | 0.01 | 0.00 | 89 | 1006.4 |
| 20260903112428 | 60 | 87 | 5.0 | 11.0 | 0.00 | 0.01 | 0.00 | 89 | 1006.4 |
| 20260903110920 | 60 | 93 | 5.0 | 8.0 | 0.00 | 0.01 | 0.00 | 90 | 1006.4 |
| 20260903104932 | 60 | 93 | 2.0 | 8.0 | 0.00 | 0.01 | 0.00 | 90 | 1006.6 |
| 20260903102923 | 60 | 80 | 7.0 | 9.0 | 0.00 | 0.01 | 0.00 | 90 | 1006.3 |
| 20260903101422 | 60 | 84 | 7.0 | 10.0 | 0.00 | 0.01 | 0.00 | 90 | 1006.4 |
| 20260903095429 | 60 | 86 | 5.0 | 10.0 | 0.00 | 0.01 | 0.00 | 91 | 1006.8 |
| 20260903093920 | 59 | 85 | 5.0 | 9.0 | 0.00 | 0.01 | 0.00 | 91 | 1006.7 |
| 20260903091928 | 59 | 79 | 7.0 | 12.0 | 0.00 | 0.01 | 0.00 | 91 | 1006.3 |
| 20260903085930 | 59 | 85 | 9.0 | 14.0 | 0.00 | 0.01 | 0.00 | 91 | 1006.3 |
| 20260903084423 | 59 | 81 | 8.0 | 14.0 | 0.00 | 0.01 | 0.00 | 91 | 1006.2 |
| 20260903082422 | 59 | 94 | 10.0 | 14.0 | 0.00 | 0.01 | 0.00 | 91 | 1006.0 |
| 20260903080912 | 59 | 80 | 11.0 | 15.0 | 0.00 | 0.01 | 0.00 | 92 | 1005.7 |
| 20260903074929 | 59 | 82 | 10.0 | 15.0 | 0.00 | 0.01 | 0.00 | 92 | 1006.0 |
| 20260903072939 | 59 | 76 | 9.0 | 14.0 | 0.00 | 0.01 | 0.00 | 92 | 1006.0 |
| 20260903070936 | 59 | 81 | 9.0 | 14.0 | 0.00 | 0.01 | 0.00 | 92 | 1006.0 |
| 20260903065423 | 60 | 76 | 9.0 | 14.0 | 0.00 | 0.01 | 0.00 | 91 | 1006.0 |
| 20260903063430 | 60 | 88 | 8.0 | 12.0 | 0.00 | 0.01 | 0.00 | 91 | 1005.9 |
| 20260903061919 | 60 | 86 | 8.0 | 12.0 | 0.00 | 0.01 | 0.00 | 91 | 1005.8 |
| 20260903055947 | 60 | 78 | 7.0 | 12.0 | 0.00 | 0.01 | 0.00 | 90 | 1006.0 |
| 20260903053923 | 60 | 84 | 8.0 | 13.0 | 0.00 | 0.01 | 0.01 | 90 | 1005.9 |
| 20260903051934 | 59 | 87 | 7.0 | 12.0 | 0.00 | 0.01 | 0.01 | 90 | 1006.2 |
| 20260903045939 | 60 | 64 | 6.0 | 10.0 | 0.00 | 0.01 | 0.01 | 89 | 1006.7 |
| 20260903044413 | 61 | 71 | 7.0 | 11.0 | 0.00 | 0.01 | 0.01 | 89 | 1006.7 |
| 20260903042424 | 61 | 74 | 8.0 | 11.0 | 0.00 | 0.01 | 0.01 | 87 | 1006.8 |
| 20260903040426 | 62 | 72 | 9.0 | 13.0 | 0.00 | 0.01 | 0.01 | 86 | 1006.9 |
| 20260903034425 | 62 | 70 | 7.0 | 12.0 | 0.00 | 0.01 | 0.01 | 86 | 1006.8 |
| 20260903032422 | 63 | 76 | 7.0 | 12.0 | 0.00 | 0.01 | 0.01 | 86 | 1007.0 |
| 20260903030429 | 63 | 72 | 6.0 | 10.0 | 0.00 | 0.01 | 0.01 | 87 | 1007.0 |
| 20260903024924 | 63 | 51 | 5.0 | 9.0 | 0.00 | 0.01 | 0.01 | 87 | 1007.0 |
| 20260903022935 | 63 | 61 | 3.0 | 6.0 | 0.00 | 0.01 | 0.01 | 84 | 1006.8 |
| 20260903021427 | 64 | 61 | 4.0 | 7.0 | 0.00 | 0.01 | 0.01 | 83 | 1006.6 |
| 20260903015916 | 65 | 73 | 5.0 | 9.0 | 0.00 | 0.01 | 0.01 | 81 | 1006.4 |
| 20260903013932 | 67 | 66 | 6.0 | 9.0 | 0.00 | 0.01 | 0.01 | 79 | 1006.2 |
| 20260903012430 | 68 | 90 | 5.0 | 9.0 | 0.00 | 0.01 | 0.01 | 76 | 1006.2 |
| 20260903010926 | 71 | 82 | 5.0 | 9.0 | 0.00 | 0.01 | 0.01 | 72 | 1006.1 |
| 20260903005416 | 73 | 56 | 5.0 | 10.0 | 0.00 | 0.01 | 0.01 | 68 | 1006.0 |
| 20260903003415 | 75 | 72 | 12.0 | 17.0 | 0.00 | 0.01 | 0.01 | 62 | 1006.0 |
| 20260903001432 | 76 | 97 | 11.0 | 17.0 | 0.00 | 0.01 | 0.01 | 57 | 1006.0 |
| 20260902235429 | 77 | 92 | 12.0 | 17.0 | 0.00 | 0.01 | 0.01 | 55 | 1005.9 |
| 20260902233432 | 77 | 88 | 10.0 | 15.0 | 0.00 | 0.01 | 0.01 | 55 | 1006.2 |
| 20260902231929 | 78 | 109 | 9.0 | 14.0 | 0.00 | 0.01 | 0.01 | 53 | 1006.1 |
| 20260902230413 | 79 | 102 | 11.0 | 18.0 | 0.00 | 0.01 | 0.01 | 51 | 1006.1 |
| 20260902224912 | 79 | 106 | 11.0 | 17.0 | 0.00 | 0.01 | 0.01 | 52 | 1006.3 |
| 20260902222923 | 78 | 86 | 11.0 | 17.0 | 0.00 | 0.01 | 0.01 | 54 | 1006.2 |
| 20260902220914 | 78 | 88 | 8.0 | 15.0 | 0.00 | 0.01 | 0.01 | 54 | 1006.3 |
| 20260902214932 | 79 | 115 | 6.0 | 14.0 | 0.00 | 0.01 | 0.01 | 53 | 1006.5 |
| 20260902213426 | 80 | 99 | 9.0 | 18.0 | 0.00 | 0.01 | 0.01 | 52 | 1006.7 |
| 20260902211437 | 79 | 89 | 9.0 | 14.0 | 0.00 | 0.01 | 0.01 | 53 | 1006.9 |
| 20260902205930 | 79 | 97 | 10.0 | 16.0 | 0.00 | 0.01 | 0.01 | 53 | 1007.2 |
| 20260902203917 | 78 | 71 | 8.0 | 15.0 | 0.00 | 0.01 | 0.01 | 55 | 1007.5 |
| 20260902202412 | 79 | 130 | 5.0 | 13.0 | 0.00 | 0.01 | 0.01 | 54 | 1007.6 |
| 20260902200417 | 78 | 82 | 9.0 | 16.0 | 0.00 | 0.01 | 0.01 | 56 | 1007.9 |
| 20260902194914 | 78 | 86 | 11.0 | 17.0 | 0.00 | 0.01 | 0.01 | 57 | 1008.0 |
| 20260902192932 | 76 | 88 | 9.0 | 16.0 | 0.00 | 0.01 | 0.01 | 59 | 1008.2 |
| 20260902190934 | 76 | 98 | 8.0 | 15.0 | 0.00 | 0.01 | 0.01 | 59 | 1008.5 |
| 20260902185425 | 76 | 128 | 5.0 | 13.0 | 0.00 | 0.01 | 0.01 | 58 | 1008.7 |
| 20260902183433 | 75 | 83 | 7.0 | 15.0 | 0.00 | 0.01 | 0.01 | 59 | 1009.0 |
| 20260902181426 | 75 | 89 | 10.0 | 14.0 | 0.00 | 0.01 | 0.01 | 59 | 1009.1 |
| 20260902175914 | 74 | 57 | 10.0 | 15.0 | 0.00 | 0.01 | 0.01 | 60 | 1009.3 |
| 20260902173926 | 74 | 89 | 8.0 | 16.0 | 0.00 | 0.01 | 0.01 | 61 | 1009.5 |
| 20260902171923 | 72 | 94 | 7.0 | 14.0 | 0.00 | 0.01 | 0.01 | 64 | 1009.6 |
| 20260902170417 | 71 | 88 | 7.0 | 11.0 | 0.00 | 0.01 | 0.01 | 65 | 1009.8 |